Regional Weather Roundup
Issued by NWS

Home | Current Version | Previous Version | Text Only | Print | Product List | Glossary Off
Versions: 1 2 3 4 5 6 7 8 9 10 11 12 13 14 15 16 17 18 19 20 21 22 23 24 25 26 27 28 29 30 31 32 33 34 35 36 37 38 39 40 41 42 43 44 45 46 47 48 49 50

000
ASUS44 KMEG 250500
RWRTN
TENNESSEE HOURLY STATE WEATHER ROUNDUP
NATIONAL WEATHER SERVICE MEMPHIS TN
1100 PM CST WED DEC 24 2014

TNZ002-004-019-021-049-052-054-088>092-250600-
WEST TENNESSEE

CITY           SKY/WX    TMP DP  RH WIND       PRES   REMARKS
MEMPHIS INTL   CLOUDY    43  35  73 W5        30.00R
NWS MEMPHIS      N/A     42 N/A N/A MISG        N/A
JACKSON        CLOUDY    41  35  79 SW8       29.97R
DYERSBURG      CLEAR     37  25  60 W7        29.98R WCI  32
UNION CITY     CLEAR     36  36 100 SW6       29.93R WCI  31
PARIS          PTCLDY    36  34  93 SW8       29.93R WCI  29
LEXINGTON      CLOUDY    39  36  87 W8        29.94R WCI  34
SAVANNAH       CLOUDY    39  36  87 W6        29.97S WCI  35
$$

TNZ008-025-027-028-033-062-065-066-250600-
NORTH MIDDLE TENNESSEE

CITY           SKY/WX    TMP DP  RH WIND       PRES   REMARKS
NASHVILLE      CLOUDY    42  36  79 SW5       29.92R
CLARKSVILLE    CLOUDY    41  36  82 W10       29.90R
COOKEVILLE     CLOUDY    39  37  93 W5        29.89R
CROSSVILLE     CLOUDY    38  35  89 W12       29.87R WCI  30
$$

TNZ061-075-076-078-094-096-097-250600-
SOUTH MIDDLE TENNESSEE

CITY           SKY/WX    TMP DP  RH WIND       PRES   REMARKS
FAYETTEVILLE   CLOUDY    39  34  81 MISG      29.94R
TULLAHOMA      CLOUDY    37  36  93 W8        29.93R WCI  31
WINCHESTER     CLOUDY    39  34  81 W6        29.94R WCI  35
SHELBYVILLE    CLOUDY    41  37  87 SW6       29.94R
$$

TNZ017-018-042-046-047-250600-
NORTHEAST TENNESSEE

CITY           SKY/WX    TMP DP  RH WIND       PRES   REMARKS
TRI CITIES     CLOUDY    45  38  76 W8        29.81F
ELIZABETHTON   CLOUDY    43  37  81 SW8       29.82R
$$

TNZ012-013-036-069-073-074-250600-
CENTRAL EAST TENNESSEE

CITY           SKY/WX    TMP DP  RH WIND       PRES   REMARKS
KNOXVILLE      CLOUDY    44  40  85 SW8       29.86F
OAK RIDGE      LGT RAIN  46  39  76 CALM      29.87R
GATLINBURG     MOCLDY    45  36  70 SW6       29.85S
$$

TNZ083-085-099-250600-
SOUTHEAST TENNESSEE

CITY           SKY/WX    TMP DP  RH WIND       PRES   REMARKS
CHATTANOOGA    CLOUDY    45  37  73 W8        29.92R
$$

SKY/WX REPORTED AS FAIR MEANS FEW OR NO CLOUDS BELOW
12 THOUSAND FEET.




USA.gov is the U.S. government's official web portal to all federal, state and local government web resources and services.